Location: Bazinghen
(50.8246°N, 1.6616°E)
Time: 05:04:09
(UTC+00:00)

STARLINK-1239 - Pass Details

Date: 09 April 2020
Orbit: 549 x 551 km, 53.0° (Epoch: 01 June)

Event Time Altitude Azimuth Distance (km) Brightness Sun altitude
Rises 20:07:59 0° 290° (WNW) 2,783 9.0 -13.6°
Reaches altitude 10° 20:10:15 10° 288° (WNW) 1,884 7.6 -13.9°
Maximum altitude 20:14:30 66° 206° (SSW) 628 3.8 -14.5°
Enters shadow 20:16:48 26° 130° (SE) 1,144 4.6 -14.8°
